| ตารางข้อมูล | 4529T1 | 4529T2 | 4529T3 | 4529T4 | TH20402 | TH452-9A | TH452-9D | TH814 | ค้นข้อมูล1 | ค้นข้อมูล2 | ค่าสูงสุด-ต่ำสุด |  

Select Sensor -->| 20402 | 452-9A | 452-9D | 4529T1 | 4529T2 | 4529T3 | 4529T4 | 814 | หน้าจอย่อ | 4529 |
Data of room  4529T2

IDRoomDate  Temp  Humidity
 184185  4529T2  2021-03-03 08:18:51  26.6  0.0 
 184180  4529T2  2021-03-03 07:58:44  26.1  0.0 
 184175  4529T2  2021-03-03 07:38:37  25.4  0.0 
 184170  4529T2  2021-03-03 07:18:29  24.5  0.0 
 184165  4529T2  2021-03-03 06:58:22  24.5  0.0 
 184160  4529T2  2021-03-03 06:38:15  24.6  0.0 
 184155  4529T2  2021-03-03 06:18:08  24.3  0.0 
 184150  4529T2  2021-03-03 05:58:00  24.6  0.0 
 184145  4529T2  2021-03-03 05:37:53  24.6  0.0 
 184140  4529T2  2021-03-03 05:17:46  25.3  0.0 
 184135  4529T2  2021-03-03 04:57:38  25.1  0.0 
 184130  4529T2  2021-03-03 04:37:31  25.4  0.0 
 184125  4529T2  2021-03-03 04:17:24  25.3  0.0 
 184120  4529T2  2021-03-03 03:57:17  25.4  0.0 
 184115  4529T2  2021-03-03 03:37:09  25.7  0.0 
 184110  4529T2  2021-03-03 03:17:02  25.3  0.0 
 184105  4529T2  2021-03-03 02:56:55  25.2  0.0 
 184100  4529T2  2021-03-03 02:36:48  25.5  0.0 
 184095  4529T2  2021-03-03 02:16:40  25.8  0.0 
 184090  4529T2  2021-03-03 01:56:33  25.8  0.0 
 184085  4529T2  2021-03-03 01:36:26  26.3  0.0 
 184080  4529T2  2021-03-03 01:16:18  27.0  0.0 
 184075  4529T2  2021-03-03 00:56:11  26.5  0.0 
 184070  4529T2  2021-03-03 00:36:04  26.3  0.0 
 184065  4529T2  2021-03-03 00:15:56  26.8  0.0 
 184060  4529T2  2021-03-02 23:55:49  26.5  0.0 
 184055  4529T2  2021-03-02 23:35:42  26.6  0.0 
 184050  4529T2  2021-03-02 23:15:35  26.7  0.0 
 184045  4529T2  2021-03-02 22:55:27  26.7  0.0 
 184040  4529T2  2021-03-02 22:35:20  26.8  0.0 
 184035  4529T2  2021-03-02 22:15:13  26.9  0.0 
 184030  4529T2  2021-03-02 21:55:05  26.9  0.0 
 184025  4529T2  2021-03-02 21:34:58  26.8  0.0 
 184020  4529T2  2021-03-02 21:14:51  26.8  0.0 
 184015  4529T2  2021-03-02 20:54:44  26.8  0.0 
 184010  4529T2  2021-03-02 20:34:36  26.9  0.0 
 184005  4529T2  2021-03-02 20:14:29  27.1  0.0 
 184000  4529T2  2021-03-02 19:54:22  27.1  0.0 
 183995  4529T2  2021-03-02 19:34:14  27.2  0.0 
 183990  4529T2  2021-03-02 19:14:07  27.3  0.0 
 183985  4529T2  2021-03-02 18:54:00  27.5  0.0 
 183980  4529T2  2021-03-02 18:33:53  27.8  0.0 
 183975  4529T2  2021-03-02 18:13:45  28.3  0.0 
 183969  4529T2  2021-03-02 17:53:38  28.6  0.0 
 183964  4529T2  2021-03-02 17:33:31  29.0  0.0 
 183959  4529T2  2021-03-02 17:13:24  29.1  0.0 
 183954  4529T2  2021-03-02 16:53:16  29.3  0.0 
 183949  4529T2  2021-03-02 16:33:09  29.8  0.0 
 183944  4529T2  2021-03-02 16:13:02  29.9  0.0 
 183939  4529T2  2021-03-02 15:52:54  30.0  0.0 
 183934  4529T2  2021-03-02 15:32:47  31.0  0.0 
 183929  4529T2  2021-03-02 15:12:40  30.8  0.0 
 183924  4529T2  2021-03-02 14:52:32  30.8  0.0 
 183919  4529T2  2021-03-02 14:32:25  30.8  0.0 
 183914  4529T2  2021-03-02 14:12:18  31.2  0.0 
 183909  4529T2  2021-03-02 13:52:11  30.3  0.0 
 183904  4529T2  2021-03-02 13:32:03  31.3  0.0 
 183899  4529T2  2021-03-02 13:11:56  30.9  0.0 
 183894  4529T2  2021-03-02 12:51:48  31.6  0.0 
 183889  4529T2  2021-03-02 12:31:41  31.3  0.0 
 183884  4529T2  2021-03-02 12:11:34  30.6  0.0 
 183879  4529T2  2021-03-02 11:51:25  31.1  0.0 
 183874  4529T2  2021-03-02 11:31:17  31.7  0.0 
 183869  4529T2  2021-03-02 11:11:09  31.0  0.0 
 183864  4529T2  2021-03-02 10:51:02  31.4  0.0 
 183859  4529T2  2021-03-02 10:30:54  31.6  0.0 
 183854  4529T2  2021-03-02 10:10:47  30.5  0.0 
 183849  4529T2  2021-03-02 09:50:40  29.5  0.0 
 183844  4529T2  2021-03-02 09:30:33  29.0  0.0 
 183839  4529T2  2021-03-02 09:10:25  29.3  0.0 
 183834  4529T2  2021-03-02 08:50:18  29.1  0.0 
 183829  4529T2  2021-03-02 08:30:11  27.3  0.0 

Data every 20 minute.


Data of room  4529T2


Data every 20 minute.

  Show Graph